Time,TemperatureF,DewpointF,PressureIn,WindDirection,WindDirectionDegrees,WindSpeedMPH,WindSpeedGustMPH,Humidity,HourlyPrecipIn,Conditions,Clouds,dailyrainin,SoftwareType,DateUTC
2013-04-15 00:00:00,55.6,37.3,29.71,North,0,0.0,0.0,50,0.00,,,0.00,WUHU216HW,2013-04-15 05:00:00,
2013-04-15 00:05:00,55.6,37.3,29.71,North,0,0.0,0.0,50,0.00,,,0.00,WUHU216HW,2013-04-15 05:05:00,
2013-04-15 00:30:00,54.9,36.0,29.73,North,0,0.0,0.0,49,0.00,,,0.00,WUHU216HW,2013-04-15 05:30:00,
2013-04-15 00:35:00,54.9,36.0,29.73,North,0,0.0,0.0,49,0.00,,,0.00,WUHU216HW,2013-04-15 05:35:00,
2013-04-15 01:00:00,54.4,36.1,29.73,North,0,0.0,0.0,50,0.00,,,0.00,WUHU216HW,2013-04-15 06:00:00,
2013-04-15 01:05:00,54.4,36.1,29.73,North,0,0.0,0.0,50,0.00,,,0.00,WUHU216HW,2013-04-15 06:05:00,
2013-04-15 01:30:00,53.6,36.4,29.71,North,0,0.0,0.0,52,0.00,,,0.00,WUHU216HW,2013-04-15 06:30:00,
2013-04-15 01:35:00,53.6,36.4,29.71,North,0,0.0,0.0,52,0.00,,,0.00,WUHU216HW,2013-04-15 06:35:00,
2013-04-15 02:00:00,52.9,36.6,29.70,North,0,0.0,0.0,54,0.00,,,0.00,WUHU216HW,2013-04-15 07:00:00,
2013-04-15 02:05:00,52.9,36.6,29.70,North,0,0.0,0.0,54,0.00,,,0.00,WUHU216HW,2013-04-15 07:05:00,
2013-04-15 02:30:00,52.7,35.6,29.72,North,0,0.0,0.0,52,0.00,,,0.00,WUHU216HW,2013-04-15 07:30:00,
2013-04-15 03:00:00,52.2,35.1,29.76,North,0,0.0,0.0,52,0.00,,,0.00,WUHU216HW,2013-04-15 08:00:00,
2013-04-15 03:05:00,52.2,35.1,29.76,North,0,0.0,0.0,52,0.00,,,0.00,WUHU216HW,2013-04-15 08:05:00,
2013-04-15 03:30:00,51.7,35.0,29.75,North,0,0.0,0.0,53,0.00,,,0.00,WUHU216HW,2013-04-15 08:30:00,
2013-04-15 03:35:00,51.7,35.0,29.75,North,0,0.0,0.0,53,0.00,,,0.00,WUHU216HW,2013-04-15 08:35:00,
2013-04-15 04:00:00,50.4,36.6,29.74,North,0,0.0,0.0,59,0.02,,,0.00,WUHU216HW,2013-04-15 09:00:00,
2013-04-15 04:05:00,50.4,36.6,29.74,North,0,0.0,0.0,59,0.02,,,0.00,WUHU216HW,2013-04-15 09:05:00,
2013-04-15 04:30:00,48.4,37.9,29.76,North,0,0.0,0.0,67,0.02,,,0.02,WUHU216HW,2013-04-15 09:30:00,
2013-04-15 04:35:00,48.4,37.9,29.76,North,0,0.0,0.0,67,0.02,,,0.02,WUHU216HW,2013-04-15 09:35:00,
2013-04-15 05:00:00,48.2,38.9,29.74,North,0,0.0,0.0,70,0.01,,,0.02,WUHU216HW,2013-04-15 10:00:00,
2013-04-15 05:05:00,48.2,38.9,29.74,North,0,0.0,0.0,70,0.01,,,0.02,WUHU216HW,2013-04-15 10:05:00,
2013-04-15 05:30:00,47.0,39.4,29.77,North,0,0.0,0.0,75,0.09,,,0.03,WUHU216HW,2013-04-15 10:30:00,
2013-04-15 05:35:00,47.0,39.4,29.77,North,0,0.0,0.0,75,0.09,,,0.03,WUHU216HW,2013-04-15 10:35:00,
2013-04-15 06:00:00,44.6,37.9,29.75,North,0,0.0,0.0,77,0.13,,,0.11,WUHU216HW,2013-04-15 11:00:00,
2013-04-15 06:05:00,44.6,37.9,29.75,North,0,0.0,0.0,77,0.13,,,0.11,WUHU216HW,2013-04-15 11:05:00,
2013-04-15 06:30:00,44.6,38.9,29.76,North,0,0.0,0.0,80,0.05,,,0.16,WUHU216HW,2013-04-15 11:30:00,
2013-04-15 06:35:00,44.6,38.9,29.76,North,0,0.0,0.0,80,0.05,,,0.16,WUHU216HW,2013-04-15 11:35:00,
2013-04-15 07:00:00,45.0,39.5,29.77,North,0,0.0,0.0,81,0.01,,,0.16,WUHU216HW,2013-04-15 12:00:00,
2013-04-15 07:05:00,45.0,39.5,29.77,North,0,0.0,0.0,81,0.01,,,0.16,WUHU216HW,2013-04-15 12:05:00,
2013-04-15 07:30:00,45.0,39.5,29.78,North,0,0.0,0.0,81,0.01,,,0.17,WUHU216HW,2013-04-15 12:30:00,
2013-04-15 07:35:00,45.0,39.5,29.78,North,0,0.0,0.0,81,0.01,,,0.17,WUHU216HW,2013-04-15 12:35:00,
2013-04-15 08:00:00,45.2,39.7,29.79,North,0,0.0,0.0,81,0.00,,,0.17,WUHU216HW,2013-04-15 13:00:00,
2013-04-15 08:05:00,45.2,39.7,29.79,North,0,0.0,0.0,81,0.00,,,0.17,WUHU216HW,2013-04-15 13:05:00,
2013-04-15 08:30:00,45.9,40.4,29.80,North,0,0.0,0.0,81,0.00,,,0.17,WUHU216HW,2013-04-15 13:30:00,
2013-04-15 08:35:00,45.9,40.4,29.80,North,0,0.0,0.0,81,0.00,,,0.17,WUHU216HW,2013-04-15 13:35:00,
2013-04-15 09:00:00,46.4,41.0,29.81,North,0,0.0,0.0,81,0.00,,,0.17,WUHU216HW,2013-04-15 14:00:00,
2013-04-15 09:05:00,46.4,41.0,29.81,North,0,0.0,0.0,81,0.00,,,0.17,WUHU216HW,2013-04-15 14:05:00,
2013-04-15 09:30:00,47.3,41.5,29.81,North,0,0.0,0.0,80,0.00,,,0.17,WUHU216HW,2013-04-15 14:30:00,
2013-04-15 09:35:00,47.3,41.5,29.81,North,0,0.0,0.0,80,0.00,,,0.17,WUHU216HW,2013-04-15 14:35:00,
2013-04-15 10:00:00,47.9,41.3,29.82,North,0,0.0,0.0,78,0.00,,,0.17,WUHU216HW,2013-04-15 15:00:00,
2013-04-15 10:05:00,47.9,41.3,29.82,North,0,0.0,0.0,78,0.00,,,0.17,WUHU216HW,2013-04-15 15:05:00,
2013-04-15 10:30:00,48.6,41.9,29.82,North,0,0.0,0.0,78,0.00,,,0.17,WUHU216HW,2013-04-15 15:30:00,
2013-04-15 10:35:00,48.6,41.9,29.82,North,0,0.0,0.0,78,0.00,,,0.17,WUHU216HW,2013-04-15 15:35:00,
2013-04-15 11:00:00,49.1,42.2,29.83,North,0,0.0,0.0,77,0.00,,,0.17,WUHU216HW,2013-04-15 16:00:00,
2013-04-15 11:05:00,49.1,42.2,29.83,North,0,0.0,0.0,77,0.00,,,0.17,WUHU216HW,2013-04-15 16:05:00,
2013-04-15 11:30:00,49.5,41.9,29.83,North,0,0.0,0.0,75,0.00,,,0.17,WUHU216HW,2013-04-15 16:30:00,
2013-04-15 11:35:00,49.5,41.9,29.83,North,0,0.0,0.0,75,0.00,,,0.17,WUHU216HW,2013-04-15 16:35:00,
2013-04-15 12:00:00,50.0,40.7,29.83,North,0,0.0,0.0,70,0.00,,,0.17,WUHU216HW,2013-04-15 17:00:00,
2013-04-15 12:05:00,50.0,40.7,29.83,North,0,0.0,0.0,70,0.00,,,0.17,WUHU216HW,2013-04-15 17:05:00,
2013-04-15 12:09:00,50.0,40.7,29.83,North,0,0.0,0.0,70,0.00,,,0.17,WUHU216HW,2013-04-15 17:09:00,
2013-04-15 12:30:00,49.3,37.6,29.84,North,0,0.0,0.0,64,0.00,,,0.17,WUHU216HW,2013-04-15 17:30:00,
2013-04-15 12:31:00,49.3,37.6,29.84,North,0,0.0,0.0,64,0.00,,,0.17,WUHU216HW,2013-04-15 17:31:00,
2013-04-15 12:37:00,49.3,37.6,29.84,North,0,0.0,0.0,64,0.00,,,0.17,WUHU216HW,2013-04-15 17:37:00,
2013-04-15 13:00:00,49.0,37.3,29.84,North,0,0.0,0.0,64,0.00,,,0.17,WUHU216HW,2013-04-15 18:00:00,
2013-04-15 13:05:00,49.0,37.3,29.84,North,0,0.0,0.0,64,0.00,,,0.17,WUHU216HW,2013-04-15 18:05:00,
2013-04-15 13:30:00,48.6,37.0,29.82,North,0,0.0,0.0,64,0.00,,,0.17,WUHU216HW,2013-04-15 18:30:00,
2013-04-15 13:35:00,48.6,37.0,29.82,North,0,0.0,0.0,64,0.00,,,0.17,WUHU216HW,2013-04-15 18:35:00,
2013-04-15 14:00:00,48.4,36.8,29.82,North,0,0.0,0.0,64,0.00,,,0.17,WUHU216HW,2013-04-15 19:00:00,
2013-04-15 14:05:00,48.4,36.8,29.82,North,0,0.0,0.0,64,0.00,,,0.17,WUHU216HW,2013-04-15 19:05:00,
2013-04-15 14:30:00,48.8,36.4,29.82,North,0,0.0,0.0,62,0.00,,,0.17,WUHU216HW,2013-04-15 19:30:00,
2013-04-15 14:35:00,48.8,36.4,29.82,North,0,0.0,0.0,62,0.00,,,0.17,WUHU216HW,2013-04-15 19:35:00,
2013-04-15 15:00:00,48.2,35.8,29.81,North,0,0.0,0.0,62,0.00,,,0.17,WUHU216HW,2013-04-15 20:00:00,
2013-04-15 15:02:00,48.2,35.8,29.81,North,0,0.0,0.0,62,0.00,,,0.17,WUHU216HW,2013-04-15 20:02:00,
2013-04-15 15:07:00,48.2,35.8,29.81,North,0,0.0,0.0,62,0.00,,,0.17,WUHU216HW,2013-04-15 20:07:00,
2013-04-15 15:30:00,47.9,34.7,29.81,North,0,0.0,0.0,60,0.00,,,0.17,WUHU216HW,2013-04-15 20:30:00,
2013-04-15 15:35:00,47.9,34.7,29.81,North,0,0.0,0.0,60,0.00,,,0.17,WUHU216HW,2013-04-15 20:35:00,
2013-04-15 16:00:00,48.2,35.5,29.81,North,0,0.0,0.0,61,0.00,,,0.17,WUHU216HW,2013-04-15 21:00:00,
2013-04-15 16:05:00,48.2,35.5,29.81,North,0,0.0,0.0,61,0.00,,,0.17,WUHU216HW,2013-04-15 21:05:00,
2013-04-15 16:30:00,48.4,35.6,29.81,North,0,0.0,0.0,61,0.00,,,0.17,WUHU216HW,2013-04-15 21:30:00,
2013-04-15 16:35:00,48.4,35.6,29.81,North,0,0.0,0.0,61,0.00,,,0.17,WUHU216HW,2013-04-15 21:35:00,
2013-04-15 17:00:00,48.6,34.9,29.80,North,0,0.0,0.0,59,0.00,,,0.17,WUHU216HW,2013-04-15 22:00:00,
2013-04-15 17:05:00,48.6,34.9,29.80,North,0,0.0,0.0,59,0.00,,,0.17,WUHU216HW,2013-04-15 22:05:00,
2013-04-15 17:30:00,48.1,32.6,29.81,North,0,0.0,0.0,55,0.00,,,0.17,WUHU216HW,2013-04-15 22:30:00,
2013-04-15 17:35:00,48.1,32.6,29.81,North,0,0.0,0.0,55,0.00,,,0.17,WUHU216HW,2013-04-15 22:35:00,
2013-04-15 18:00:00,48.1,33.5,29.83,North,0,0.0,0.0,57,0.00,,,0.17,WUHU216HW,2013-04-15 23:00:00,
2013-04-15 18:05:00,48.1,33.5,29.83,North,0,0.0,0.0,57,0.00,,,0.17,WUHU216HW,2013-04-15 23:05:00,
2013-04-15 18:30:00,48.4,33.0,29.83,North,0,0.0,0.0,55,0.00,,,0.17,WUHU216HW,2013-04-15 23:30:00,
2013-04-15 18:35:00,48.4,33.0,29.83,North,0,0.0,0.0,55,0.00,,,0.17,WUHU216HW,2013-04-15 23:35:00,
2013-04-15 19:00:00,48.2,33.2,29.83,North,0,0.0,0.0,56,0.00,,,0.17,WUHU216HW,2013-04-16 00:00:00,
2013-04-15 19:05:00,48.2,33.2,29.83,North,0,0.0,0.0,56,0.00,,,0.17,WUHU216HW,2013-04-16 00:05:00,
2013-04-15 19:30:00,48.4,33.8,29.85,North,0,0.0,0.0,57,0.00,,,0.17,WUHU216HW,2013-04-16 00:30:00,
2013-04-15 19:35:00,48.4,33.8,29.85,North,0,0.0,0.0,57,0.00,,,0.17,WUHU216HW,2013-04-16 00:35:00,
2013-04-15 20:00:00,48.1,33.5,29.86,North,0,0.0,0.0,57,0.00,,,0.17,WUHU216HW,2013-04-16 01:00:00,
2013-04-15 20:05:00,48.1,33.5,29.86,North,0,0.0,0.0,57,0.00,,,0.17,WUHU216HW,2013-04-16 01:05:00,
2013-04-15 20:30:00,47.9,34.3,29.87,North,0,0.0,0.0,59,0.00,,,0.17,WUHU216HW,2013-04-16 01:30:00,
2013-04-15 20:35:00,47.9,34.3,29.87,North,0,0.0,0.0,59,0.00,,,0.17,WUHU216HW,2013-04-16 01:35:00,
2013-04-15 21:00:00,47.7,34.9,29.90,North,0,0.0,0.0,61,0.00,,,0.17,WUHU216HW,2013-04-16 02:00:00,
2013-04-15 21:05:00,47.7,34.9,29.90,North,0,0.0,0.0,61,0.00,,,0.17,WUHU216HW,2013-04-16 02:05:00,
2013-04-15 21:10:00,47.7,34.9,29.90,North,0,0.0,0.0,61,0.00,,,0.17,WUHU216HW,2013-04-16 02:10:00,
2013-04-15 21:30:00,46.8,34.8,29.91,North,0,0.0,0.0,63,0.00,,,0.17,WUHU216HW,2013-04-16 02:30:00,
2013-04-15 21:35:00,46.8,34.8,29.91,North,0,0.0,0.0,63,0.00,,,0.17,WUHU216HW,2013-04-16 02:35:00,
2013-04-15 22:00:00,46.6,35.1,29.93,North,0,0.0,0.0,64,0.00,,,0.17,WUHU216HW,2013-04-16 03:00:00,
2013-04-15 22:05:00,46.6,35.1,29.93,North,0,0.0,0.0,64,0.00,,,0.17,WUHU216HW,2013-04-16 03:05:00,
2013-04-15 22:30:00,46.1,34.1,29.94,North,0,0.0,0.0,63,0.00,,,0.17,WUHU216HW,2013-04-16 03:30:00,
2013-04-15 22:35:00,46.1,34.1,29.94,North,0,0.0,0.0,63,0.00,,,0.17,WUHU216HW,2013-04-16 03:35:00,
2013-04-15 23:00:00,45.4,33.8,29.93,North,0,0.0,0.0,64,0.00,,,0.17,WUHU216HW,2013-04-16 04:00:00,
2013-04-15 23:05:00,45.4,33.8,29.93,North,0,0.0,0.0,64,0.00,,,0.17,WUHU216HW,2013-04-16 04:05:00,
2013-04-15 23:30:00,45.2,34.1,29.92,North,0,0.0,0.0,65,0.00,,,0.17,WUHU216HW,2013-04-16 04:30:00,
2013-04-15 23:35:00,45.2,34.1,29.92,North,0,0.0,0.0,65,0.00,,,0.17,WUHU216HW,2013-04-16 04:35:00,